TimeEET,TemperatureF,Dew PointF,Humidity,Sea Level PressureIn,VisibilityMPH,Wind Direction,Wind SpeedMPH,Gust SpeedMPH,PrecipitationIn,Events,Conditions,WindDirDegrees,DateUTC
12:20 AM,35.6,30.2,81,30.21,3.7,NNW,4.6,-,N/A,,Partly Cloudy,330,2013-02-28 22:20:00
12:50 AM,35.6,32.0,87,30.21,3.7,NNW,5.8,-,N/A,,Partly Cloudy,340,2013-02-28 22:50:00
1:20 AM,37.4,32.0,81,30.21,2.5,Calm,Calm,-,N/A,,Partly Cloudy,0,2013-02-28 23:20:00
1:50 AM,37.4,30.2,75,30.21,2.5,NNW,5.8,-,N/A,,Partly Cloudy,330,2013-02-28 23:50:00
2:00 AM,36,30,70,30.22,2,NNW,5.8,,,,Mist,330,2013-03-01 00:00:00
2:20 AM,35.6,30.2,81,30.18,2.5,NNW,6.9,-,N/A,,Partly Cloudy,330,2013-03-01 00:20:00
2:50 AM,33.8,30.2,87,30.18,2.5,NW,6.9,-,N/A,,Partly Cloudy,320,2013-03-01 00:50:00
3:20 AM,33.8,30.2,87,30.18,2.5,NNW,6.9,-,N/A,,Partly Cloudy,340,2013-03-01 01:20:00
3:50 AM,32.0,30.2,93,30.18,2.5,North,6.9,-,N/A,,Partly Cloudy,350,2013-03-01 01:50:00
4:20 AM,32.0,30.2,93,30.18,-9999.0,NNW,9.2,-,N/A,,Partly Cloudy,340,2013-03-01 02:20:00
4:50 AM,33.8,30.2,87,30.18,-9999.0,North,10.4,-,N/A,,Partly Cloudy,350,2013-03-01 02:50:00
5:20 AM,33.8,32.0,93,30.18,-9999.0,North,9.2,-,N/A,,Partly Cloudy,350,2013-03-01 03:20:00
5:50 AM,33.8,32.0,93,30.15,-9999.0,North,6.9,-,N/A,,Partly Cloudy,360,2013-03-01 03:50:00
6:20 AM,32.0,30.2,93,30.15,-9999.0,North,9.2,-,N/A,,Partly Cloudy,350,2013-03-01 04:20:00
6:50 AM,33.8,32.0,93,30.15,-9999.0,North,6.9,-,N/A,,Partly Cloudy,350,2013-03-01 04:50:00
7:20 AM,35.6,32.0,87,30.15,-9999.0,Variable,1.2,-,N/A,,Mist,0,2013-03-01 05:20:00
7:50 AM,37.4,33.8,87,30.15,-9999.0,NW,2.3,-,N/A,,Mist,310,2013-03-01 05:50:00
8:00 AM,37,33,79,30.18,2,NW,2.3,,,,Mist,310,2013-03-01 06:00:00
8:20 AM,39.2,33.8,81,30.15,-9999.0,NNW,2.3,-,N/A,,Mist,340,2013-03-01 06:20:00
8:50 AM,41.0,33.8,76,30.18,2.8,NW,3.5,-,N/A,,Mist,320,2013-03-01 06:50:00
9:20 AM,42.8,33.8,70,30.18,3.7,Variable,2.3,-,N/A,,Unknown,0,2013-03-01 07:20:00
9:50 AM,44.6,32.0,61,30.15,3.7,West,1.2,-,N/A,,Unknown,280,2013-03-01 07:50:00
10:20 AM,44.6,32.0,61,30.15,6.2,SW,4.6,-,N/A,,Partly Cloudy,230,2013-03-01 08:20:00
10:50 AM,44.6,30.2,57,30.15,-9999.0,SSW,5.8,-,N/A,,Clear,200,2013-03-01 08:50:00
11:20 AM,44.6,28.4,53,30.15,-9999.0,SSW,5.8,-,N/A,,Clear,210,2013-03-01 09:20:00
11:50 AM,46.4,32.0,57,30.15,-9999.0,SSW,5.8,-,N/A,,Clear,210,2013-03-01 09:50:00
12:20 PM,44.6,32.0,61,30.15,-9999.0,SSW,6.9,-,N/A,,Clear,210,2013-03-01 10:20:00
12:50 PM,46.4,33.8,62,30.12,-9999.0,SSW,6.9,-,N/A,,Clear,210,2013-03-01 10:50:00
1:20 PM,46.4,32.0,57,30.12,-9999.0,SW,6.9,-,N/A,,Clear,230,2013-03-01 11:20:00
1:50 PM,46.4,33.8,62,30.09,-9999.0,SW,6.9,-,N/A,,Clear,230,2013-03-01 11:50:00
2:00 PM,46,32,47,30.12,6,SW,6.9,,,,,230,2013-03-01 12:00:00
2:20 PM,44.6,30.2,57,30.09,-9999.0,SW,8.1,-,N/A,,Clear,220,2013-03-01 12:20:00
2:50 PM,46.4,32.0,57,30.09,-9999.0,SW,6.9,-,N/A,,Clear,230,2013-03-01 12:50:00
3:20 PM,46.4,30.2,53,30.09,-9999.0,WSW,6.9,-,N/A,,Clear,240,2013-03-01 13:20:00
3:50 PM,44.6,28.4,53,30.06,-9999.0,SW,6.9,-,N/A,,Clear,220,2013-03-01 13:50:00
4:20 PM,44.6,30.2,57,30.06,-9999.0,SW,9.2,-,N/A,,Clear,230,2013-03-01 14:20:00
4:50 PM,44.6,32.0,61,30.06,-9999.0,SW,5.8,-,N/A,,Clear,230,2013-03-01 14:50:00
5:20 PM,44.6,30.2,57,30.04,-9999.0,SW,4.6,-,N/A,,Clear,230,2013-03-01 15:20:00
5:50 PM,42.8,30.2,61,30.04,-9999.0,SW,4.6,-,N/A,,Clear,230,2013-03-01 15:50:00
6:20 PM,42.8,30.2,61,30.04,-9999.0,SW,3.5,-,N/A,,Clear,220,2013-03-01 16:20:00
6:50 PM,42.8,30.2,61,30.04,-9999.0,SW,3.5,-,N/A,,Clear,220,2013-03-01 16:50:00
7:20 PM,42.8,30.2,61,30.04,-9999.0,SW,3.5,-,N/A,,Clear,220,2013-03-01 17:20:00
7:50 PM,42.8,30.2,61,30.04,-9999.0,WSW,3.5,-,N/A,,Clear,240,2013-03-01 17:50:00
8:00 PM,43,31,50,30.06,6,WSW,3.5,,,,,240,2013-03-01 18:00:00
8:20 PM,42.8,32.0,66,30.04,-9999.0,SW,4.6,-,N/A,,Clear,220,2013-03-01 18:20:00
8:50 PM,42.8,32.0,66,30.04,-9999.0,SW,4.6,-,N/A,,Clear,220,2013-03-01 18:50:00
9:20 PM,42.8,32.0,66,30.04,-9999.0,SW,4.6,-,N/A,,Clear,230,2013-03-01 19:20:00
9:50 PM,42.8,32.0,66,30.04,-9999.0,WSW,3.5,-,N/A,,Clear,250,2013-03-01 19:50:00
10:20 PM,42.8,32.0,66,30.04,-9999.0,SW,4.6,-,N/A,,Clear,220,2013-03-01 20:20:00
10:50 PM,42.8,32.0,66,30.04,-9999.0,South,4.6,-,N/A,,Clear,190,2013-03-01 20:50:00
11:20 PM,41.0,32.0,70,30.04,-9999.0,SSW,4.6,-,N/A,,Clear,210,2013-03-01 21:20:00
11:50 PM,41.0,32.0,70,30.04,-9999.0,SSW,4.6,-,N/A,,Clear,210,2013-03-01 21:50:00